[[{"header":{"parameterUnit":"m.s-1","parameterCategory":1,"la1":30.2991,"la2":30.254,"lo1":-89.0895,"lo2":-89.0444,"dy":0.0017,"dx":0.0017,"nx":28,"ny":28,"refTime":"2025-03-08T03:00:00:Z","depth":0,"parameterNumber":2,"parameterNumberName":"U-component_of_WINDS"},"data":[0,0,0,0,0,0,0,0,0,0,0,0,0,0,0,0,0,0,0,0,0,0,0,0,0,0,0,0,0,0,0,0,0,0,0,0,0,0,0,0,0,0,0,0,0,0,0,0,0,0,0,0,0,0,0,0,0,0,3.6977,3.6976,0,3.6948,3.6948,3.6948,3.684,3.6838,3.6836,3.6833,3.6806,3.6807,3.6809,0,0,0,0,0,0,0,0,0,0,0,0,0,3.6942,3.6943,3.6977,3.6976,3.6976,3.6948,3.6948,3.6947,3.6841,3.6838,3.6835,3.6832,3.6805,3.6807,3.6809,0,0,0,0,0,0,0,0,0,0,0,0,0,3.694,3.6944,3.6977,3.6919,3.6914,3.6948,3.6948,3.6947,3.6841,3.6838,3.6834,3.6831,3.6805,3.6807,3.6809,3.6897,0,0,3.6816,3.6817,0,0,0,0,0,0,0,0,3.694,3.6941,3.6928,3.6923,3.6917,3.6894,3.6925,3.6931,3.6842,3.6869,3.6833,3.6829,3.6838,3.6838,3.684,3.6896,3.6895,3.6817,3.6818,3.6819,3.682,0,0,0,0,0,0,0,3.6941,3.6942,3.6965,3.6928,3.6922,3.6896,3.6892,3.6926,3.6875,3.6866,3.6859,3.6857,3.6835,3.6838,3.6839,3.6894,3.6816,3.6819,3.682,3.6821,3.7025,3.7029,0,0,0,0,0,0,3.6949,3.6943,3.6966,3.6965,3.692,3.69,3.6895,3.6905,3.6874,3.6866,3.686,3.6852,3.6836,3.6836,3.6838,3.6942,3.6819,3.6821,3.6822,3.7021,3.7026,3.703,0,0,0,0,0,0,3.6948,3.6952,3.6967,3.6952,3.6952,3.6904,3.6917,3.6907,3.691,3.6869,3.6859,3.6873,3.6833,3.6834,3.6884,3.6939,3.6822,3.6824,3.7016,3.7022,3.7028,3.7149,0,0,0,0,0,0,3.6948,3.6952,3.6984,3.6953,3.6953,3.7014,3.692,3.6909,3.6914,3.6904,3.6879,3.6871,3.683,3.6881,3.6886,3.694,3.6826,3.7011,3.7019,3.7026,3.714,3.7158,3.7174,0,0,0,0,0,3.6947,3.7019,3.6986,3.699,3.6992,3.7017,3.7017,3.6968,3.6919,3.6952,3.6926,3.6872,3.6932,3.6887,3.6892,3.6948,3.7007,3.7017,3.7025,3.7132,3.7155,3.7174,0,0,0,0,0,0,3.7057,3.7014,3.6977,3.7041,3.7034,3.6999,3.7039,3.6993,3.7,3.699,3.6929,3.6925,3.6984,3.697,3.6921,3.7033,3.6961,3.6971,3.704,3.7061,3.7078,3.7082,3.6828,0,0,0,0,0,3.7089,3.7113,3.7073,3.7134,3.7132,3.7086,3.7095,3.7059,3.7049,3.7045,3.7022,3.7016,3.7033,3.7046,3.7059,3.7137,3.7132,3.7177,3.7195,3.7209,3.722,3.7263,3.7284,3.706,3.706,3.7059,0,0,3.7155,3.7134,3.7153,3.7155,3.7145,3.7173,3.7084,3.7116,3.7136,3.705,3.7097,3.708,3.7068,3.7134,3.7161,3.7124,3.728,3.722,3.7232,3.7235,3.7275,3.7296,3.7315,3.7066,3.7065,3.7064,0,0,3.7291,3.7276,3.7326,3.7318,3.7304,3.7274,3.7286,3.7259,3.7245,3.729,3.7227,3.7251,3.7281,3.7277,3.7279,3.7415,3.7367,3.7421,3.7512,3.7555,3.7573,3.7589,3.7641,3.766,3.7431,3.7432,3.7432,0,3.7375,3.7413,3.7358,3.7395,3.74,3.7323,3.7375,3.737,3.7362,3.7367,3.7325,3.7364,3.7351,3.7416,3.7449,3.7452,3.7466,3.7425,3.7575,3.759,3.7603,3.7653,3.7672,3.7438,3.7438,3.7437,3.7436,0,3.7519,3.7546,3.7589,3.7584,3.7593,3.7637,3.7591,3.7606,3.7569,3.7544,3.7594,3.7575,3.7585,3.7597,3.756,3.7658,3.7636,3.7585,3.7512,3.7633,3.7678,3.7696,3.7448,3.7446,3.7444,3.7442,0,0,3.7724,3.7689,3.7706,3.7704,3.7684,3.7705,3.7747,3.7757,3.7773,3.777,3.7806,3.7835,3.7789,3.7791,3.7753,3.7791,3.7905,3.7736,3.7735,3.7771,3.8016,3.8056,3.8079,3.7872,3.7875,3.7878,3.8018,0,3.7855,3.7925,3.7878,3.7956,3.7983,3.7911,3.7948,3.7941,3.7919,3.7939,3.7914,3.7937,3.7873,3.7874,3.7908,3.7884,3.7954,3.7873,3.7908,3.7909,3.7916,3.8102,3.8144,3.8277,3.8035,3.8038,3.804,0,3.8018,3.8024,3.8105,3.8083,3.8092,3.8126,3.8134,3.8153,3.8144,3.8126,3.813,3.8083,3.8125,3.8051,3.8109,3.8055,3.8067,3.8057,3.8061,3.8065,3.7984,3.8114,3.8318,3.834,3.8066,3.8064,3.8062,0,3.8165,3.8192,3.8245,3.8245,3.8219,3.8246,3.8236,3.8224,3.8234,3.824,3.8247,3.8258,3.8265,3.8275,3.8234,3.8183,3.8299,3.8221,3.8287,3.8289,3.8317,3.8317,3.8529,3.8319,3.8319,3.8318,3.8318,0,3.8319,3.8372,3.8311,3.8344,3.8403,3.8348,3.8408,3.8391,3.8381,3.8411,3.8349,3.8378,3.832,3.8345,3.8312,3.8368,3.837,3.8358,3.835,3.8366,3.8368,3.8375,3.8366,3.8324,3.8322,3.8321,3.832,0,3.8493,3.8453,3.8507,3.8479,3.8473,3.8518,3.8495,3.8525,3.8499,3.8538,3.8544,3.8503,3.8529,3.8488,3.8508,3.8487,3.8565,3.854,3.8568,3.8563,3.8633,3.8629,3.886,3.8889,3.8657,3.866,3.8661,0,3.8596,3.8635,3.8612,3.8628,3.8622,3.8647,3.8658,3.8607,3.862,3.8615,3.8647,3.8667,3.8681,3.8726,3.8699,3.8715,3.8693,3.8773,3.8695,3.8711,3.8698,3.8698,3.8704,3.879,3.8793,3.8795,3.8797,0,3.8784,3.8763,3.878,3.8792,3.8806,3.8812,3.8814,3.8831,3.8777,3.8796,3.8821,3.8832,3.8854,3.8876,3.8886,3.8877,3.883,3.8821,3.8838,3.8857,3.8873,3.8869,3.8616,3.8817,3.8815,3.8813,3.8812,3.8811,3.8928,3.8961,3.8951,3.8973,3.8969,3.8973,3.9002,3.8979,3.9,3.9014,3.8982,3.9016,3.9009,3.9017,3.9014,3.9041,3.9006,3.903,3.9037,3.9044,3.9057,3.8866,3.9042,3.9042,3.9041,3.9041,3.904,0,3.9116,3.9106,3.9127,3.9132,3.9151,3.9102,3.9103,3.9122,3.9153,3.915,3.9165,3.9196,3.9218,3.9193,3.9211,3.9238,3.9217,3.9245,3.9244,3.9244,3.9085,3.9071,3.9262,3.9262,3.9262,3.9262,3.9262,3.9262,3.9216,3.9272,3.925,3.9304,3.9293,3.9327,3.9332,3.9336,3.9333,3.9371,3.9389,3.9372,3.9362,3.9378,3.9397,3.9389,3.94,3.9437,3.9422,3.9276,3.9254,3.9234,3.922,3.9439,3.9439,3.9578,3.958,3.9581]},{"header":{"parameterUnit":"m.s-1","parameterCategory":1,"la1":30.2991,"la2":30.254,"lo1":-89.0895,"lo2":-89.0444,"dy":0.0017,"dx":0.0017,"nx":28,"ny":28,"refTime":"2025-03-08T03:00:00:Z","depth":0,"parameterNumber":3,"parameterNumberName":"V-component_of_WINDS"},"data":[0,0,0,0,0,0,0,0,0,0,0,0,0,0,0,0,0,0,0,0,0,0,0,0,0,0,0,0,0,0,0,0,0,0,0,0,0,0,0,0,0,0,0,0,0,0,0,0,0,0,0,0,0,0,0,0,0,0,1.5855,1.5856,0,1.5967,1.5968,1.5969,1.5997,1.5997,1.5996,1.5995,1.6109,1.6112,1.6116,0,0,0,0,0,0,0,0,0,0,0,0,0,1.5663,1.5666,1.5855,1.5856,1.5857,1.5967,1.5968,1.597,1.5998,1.5997,1.5996,1.5995,1.6107,1.6112,1.6116,0,0,0,0,0,0,0,0,0,0,0,0,0,1.5758,1.5667,1.5854,1.5885,1.5888,1.5966,1.5968,1.597,1.5998,1.5997,1.5996,1.5995,1.6106,1.6111,1.6117,1.6172,0,0,1.6134,1.6136,0,0,0,0,0,0,0,0,1.5752,1.5765,1.5879,1.5883,1.5887,1.5967,1.5942,1.6038,1.5998,1.5956,1.5995,1.5994,1.6062,1.6071,1.6095,1.6178,1.6183,1.6134,1.6138,1.614,1.6141,0,0,0,0,0,0,0,1.5746,1.576,1.5899,1.588,1.5885,1.5892,1.5904,1.596,1.6014,1.596,1.5962,1.5975,1.6064,1.6089,1.6098,1.6184,1.6134,1.6139,1.6142,1.6144,1.6318,1.6319,0,0,0,0,0,0,1.5734,1.5754,1.5895,1.5902,1.5816,1.5896,1.591,1.5942,1.6013,1.6023,1.5976,1.5976,1.608,1.6091,1.6102,1.6171,1.614,1.6145,1.6148,1.6317,1.6318,1.6319,0,0,0,0,0,0,1.573,1.5746,1.5891,1.5829,1.5848,1.5901,1.5937,1.5945,1.597,1.6026,1.6035,1.5992,1.608,1.6094,1.6155,1.6175,1.6148,1.6153,1.6315,1.6317,1.6319,1.631,0,0,0,0,0,0,1.5724,1.5745,1.5767,1.5829,1.5851,1.5942,1.5938,1.5948,1.598,1.5981,1.6043,1.6052,1.608,1.6146,1.616,1.6182,1.6157,1.6313,1.6316,1.6318,1.6309,1.6312,1.6314,0,0,0,0,0,1.5717,1.576,1.5768,1.5785,1.588,1.5944,1.5956,1.5988,1.5981,1.6004,1.6039,1.605,1.6171,1.6152,1.6168,1.6192,1.6312,1.6315,1.6318,1.6308,1.6311,1.6314,0,0,0,0,0,0,1.5698,1.5768,1.5778,1.5842,1.5887,1.5948,1.5977,1.5991,1.6038,1.6037,1.6074,1.6088,1.6146,1.6175,1.6153,1.625,1.6241,1.6248,1.6228,1.6232,1.6234,1.6226,1.6161,0,0,0,0,0,1.5701,1.5747,1.5806,1.5857,1.5879,1.5924,1.5953,1.5974,1.6021,1.604,1.608,1.6125,1.6173,1.6204,1.6252,1.6313,1.6327,1.6338,1.634,1.6342,1.6347,1.6381,1.6386,1.6329,1.6329,1.6329,0,0,1.5708,1.5752,1.5779,1.5854,1.5891,1.5938,1.594,1.5989,1.6024,1.6048,1.6107,1.6138,1.6191,1.6252,1.6281,1.6279,1.6366,1.6346,1.6347,1.6351,1.6385,1.639,1.6395,1.6331,1.6331,1.633,0,0,1.5744,1.5782,1.5829,1.5866,1.5922,1.5952,1.5963,1.6023,1.6044,1.6105,1.6123,1.6165,1.6247,1.6284,1.6313,1.6363,1.6375,1.6378,1.6391,1.6424,1.6428,1.6432,1.6449,1.6455,1.6382,1.6382,1.6382,0,1.5745,1.5817,1.5851,1.5899,1.5931,1.5956,1.6002,1.6037,1.6105,1.6126,1.6123,1.6226,1.6264,1.6333,1.6346,1.6369,1.6382,1.6371,1.6425,1.6429,1.6434,1.645,1.6457,1.6382,1.6382,1.6382,1.6382,0,1.5815,1.5864,1.5895,1.5961,1.5997,1.6044,1.6085,1.6117,1.6134,1.6164,1.6225,1.6271,1.6328,1.6346,1.6364,1.6418,1.6415,1.6418,1.641,1.6439,1.6455,1.6462,1.6382,1.6382,1.6382,1.6382,0,0,1.5842,1.5926,1.5937,1.5967,1.603,1.6069,1.6117,1.6173,1.62,1.6246,1.6287,1.6356,1.6359,1.6392,1.6414,1.6443,1.6478,1.6442,1.6444,1.6446,1.6541,1.6538,1.6545,1.6487,1.6488,1.6489,1.6536,0,1.5885,1.5973,1.6005,1.6076,1.6122,1.6146,1.6188,1.6231,1.626,1.6302,1.6335,1.6383,1.6383,1.6403,1.6433,1.6468,1.6498,1.6465,1.6524,1.6526,1.651,1.6553,1.6551,1.6593,1.6543,1.6544,1.6545,0,1.5948,1.5995,1.6072,1.613,1.615,1.6187,1.6241,1.6281,1.6331,1.635,1.6387,1.6407,1.6457,1.6447,1.6517,1.6494,1.652,1.654,1.6543,1.6549,1.6536,1.656,1.6607,1.6613,1.6555,1.6554,1.6553,0,1.5959,1.6042,1.6098,1.6123,1.6192,1.6218,1.6248,1.6296,1.6328,1.6374,1.6395,1.6447,1.6475,1.6514,1.6547,1.6537,1.6614,1.6606,1.663,1.6629,1.6645,1.6643,1.6696,1.6663,1.6663,1.6662,1.6662,0,1.6004,1.6049,1.6104,1.6139,1.619,1.6226,1.6276,1.6307,1.635,1.6391,1.6414,1.6451,1.6493,1.6536,1.6562,1.6615,1.6628,1.6644,1.665,1.6642,1.6639,1.6659,1.6656,1.6664,1.6664,1.6664,1.6663,0,1.6025,1.6063,1.6126,1.6186,1.6203,1.6238,1.6289,1.6323,1.6354,1.6404,1.6418,1.6466,1.6517,1.6554,1.662,1.6638,1.6694,1.6701,1.6678,1.6681,1.6703,1.67,1.6769,1.678,1.674,1.674,1.674,0,1.6051,1.6086,1.6151,1.618,1.621,1.6256,1.6289,1.6325,1.6358,1.6417,1.6443,1.6496,1.6541,1.6621,1.6661,1.6711,1.6719,1.674,1.6727,1.6717,1.6718,1.6716,1.6719,1.6741,1.6742,1.6742,1.6742,0,1.6092,1.611,1.6156,1.6209,1.6247,1.629,1.6334,1.6356,1.64,1.6436,1.6489,1.6523,1.6591,1.6643,1.6697,1.6727,1.6741,1.6746,1.6754,1.6745,1.673,1.6738,1.6682,1.6744,1.6744,1.6744,1.6743,1.6743,1.6116,1.6149,1.6199,1.625,1.6286,1.6326,1.6361,1.6396,1.6441,1.65,1.6518,1.6573,1.6621,1.6695,1.6726,1.6769,1.6768,1.678,1.6783,1.6785,1.6784,1.6724,1.6779,1.6779,1.6779,1.6779,1.6779,0,1.6158,1.6192,1.6238,1.6299,1.6338,1.635,1.6398,1.643,1.6478,1.6522,1.6565,1.6626,1.6676,1.672,1.6772,1.6798,1.6806,1.681,1.6808,1.6815,1.6782,1.6769,1.6803,1.6803,1.6803,1.6803,1.6803,1.6803,1.6185,1.6241,1.6264,1.6338,1.6371,1.6425,1.6452,1.6489,1.6524,1.6591,1.6633,1.6661,1.6705,1.676,1.6807,1.6818,1.6836,1.6839,1.6852,1.682,1.6817,1.6814,1.6803,1.6842,1.6843,1.6881,1.6881,1.6881]}]]